SCP
0 -0 0 0 -0 0 -0 0 0 1 0 0 0 1 2 2 1 0 0 0 0 0 0 0 0 0 0 0 0 0 0 0 0 0 0 0 0 0 0 0 0 0 0
0 0 0 0 0 0 0 0 0 1 0 0 2 2 1 1 1 1 0 0 0 0 0 0 0 0 0 0 0 0 0 0 0 0 0 0 0 0 0 0 0 0 0
0 0 0 0 0 0 0 1 2 1 1 2 2 1 0 1 1 0 0 0 0 0 0 0 0 0 0 0 0 0 0 0 0 0 0 0 0 0 0 0 0 0 0
0 0 0 0 0 0 1 0 1 1 1 1 1 0 1 1 0 0 0 0 0 0 0 0 0 0 0 0 0 0 0 0 0 0 0 0 0 0 0 0 0 0 0
0 0 0 0 0 1 1 4 3 3 2 0 0 0 1 0 0 0 0 -0 0 0 0 0 0 0 0 0 0 0 0 0 0 0 0 0 0 0 0 0 0 0 0
1 0 0 2 3 2 3 4 3 2 1 0 0 0 0 0 1 0 0 0 0 0 0 0 0 0 0 0 0 0 0 0 0 0 0 0 0 0 0 0 0 0 0
1 0 1 3 3 3 3 2 2 2 0 0 0 0 0 0 1 0 0 0 0 0 0 0 0 0 0 0 0 0 0 0 0 0 0 0 0 0 0 0 0 0 0
1 1 3 2 1 1 1 0 1 0 0 0 0 0 0 0 0 0 0 0 0 0 0 0 0 0 0 0 0 0 0 0 0 0 0 0 0 0 0 0 0 0 -0
1 2 2 1 1 0 0 0 0 0 0 0 0 0 0 0 0 0 0 0 0 0 0 0 0 0 0 0 0 0 0 0 0 0 0 0 0 0 0 0 0 0 0
2 1 1 0 0 0 0 0 0 0 0 -0 0 0 0 -0 -0 -0 0 0 0 0 0 0 0 0 0 0 0 0 0 0 0 0 0 0 0 0 0 0 0 0 0
1 0 0 0 0 0 0 0 -0 0 -0 0 0 0 0 0 0 0 0 0 0 0 0 0 0 0 0 0 0 0 0 0 0 0 0 0 0 0 0 0 0 0 0
0 0 0 0 0 0 -0 -0 0 0 0 0 0 0 0 0 0 0 0 0 0 0 0 0 0 0 0 0 0 0 0 0 0 0 0 0 0 0 0 0 0 0 0
0 0 -0 0 0 0 0 -0 -0 0 0 0 0 0 0 0 0 0 0 0 0 0 0 0 0 0 0 0 0 0 0 0 0 0 0 0 0 0 -0 0 -0 0 0
0 0 0 0 0 0 0 0 0 0 0 0 0 0 0 0 0 0 0 0 0 0 0 0 0 0 0 0 0 0 0 0 0 0 0 0 0 0 0 0 -0 0 0
0 0 0 0 0 0 0 0 0 0 0 0 0 0 0 0 0 0 0 0 0 0 0 0 0 0 0 0 0 0 0 0 0 0 0 0 0 0 0 0 -0 0 0
0 0 0 0 0 0 0 0 0 0 0 0 0 0 0 0 0 0 0 0 0 0 0 0 0 0 0 0 0 0 0 0 0 0 0 0 0 0 0 0 0 0 0
0 0 0 0 0 0 0 0 0 0 0 0 0 0 0 0 0 0 0 0 0 0 0 0 0 0 0 0 0 0 0 0 0 0 0 0 0 0 0 0 0 0 0
0 0 0 0 0 0 0 0 0 0 0 0 0 0 0 0 0 0 0 0 0 0 0 0 0 0 0 0 0 0 0 0 0 0 0 0 0 0 0 0 0 0 0
0 0 0 0 0 0 0 0 0 0 0 0 0 0 0 0 0 0 0 0 0 0 0 0 0 0 0 0 0 -0 0 0 0 0 0 0 0 0 0 0 0 0 0
0 0 0 0 0 0 0 0 0 0 0 0 0 0 0 0 0 0 0 0 0 0 0 0 0 0 0 0 0 0 0 0 0 0 0 0 0 0 0 0 0 0 0
0 0 0 0 0 0 0 0 0 0 0 0 0 0 0 0 0 0 0 0 0 0 0 0 0 0 0 0 0 0 0 0 0 0 0 0 0 0 0 0 0 0 0
0 0 0 0 0 0 0 0 0 0 0 0 0 0 0 0 0 0 0 0 0 0 0 0 0 0 0 0 0 0 0 0 0 0 0 0 0 0 0 0 0 0 0
0 0 0 0 0 0 0 0 0 0 0 0 0 0 0 0 0 0 0 0 0 0 0 0 0 0 0 0 0 0 0 0 0 0 0 0 0 0 0 0 0 0 0
0 0 0 0 0 0 0 0 0 0 0 0 0 0 0 0 0 0 0 0 0 0 0 0 0 0 0 0 0 0 0 0 0 0 0 0 0 0 0 0 0 0 0
0 0 0 0 0 0 0 0 0 0 0 0 0 0 0 0 0 0 0 0 0 0 0 0 0 0 0 0 0 0 -0 0 0 0 0 0 0 0 0 0 0 0 0
0 0 0 0 0 0 0 0 0 0 0 0 0 0 0 0 0 0 0 0 0 0 0 0 0 0 0 0 0 -0 -0 0 0 -0 0 -0 0 0 0 0 0 0 0
Wind_Speed_500mb
24 28 19 10 2 8 4 13 11 11 9 7 9 8 13 8 7 17 18 27 33 39 44 49 46 51 52 50 48 50 53 53 51 53 53 55 54 52 51 50 49 46 47
29 26 24 30 17 16 16 8 18 17 8 12 18 22 16 9 9 15 17 19 28 36 38 45 57 55 55 45 51 56 49 47 48 48 49 52 53 54 51 50 49 48 47
29 31 27 23 20 20 21 19 18 20 19 30 30 19 21 9 17 18 0 10 19 32 41 53 52 61 48 51 56 55 51 46 46 47 45 43 46 47 48 45 46 47 46
28 32 22 18 21 19 22 23 19 29 32 21 30 23 8 15 21 14 16 30 30 32 48 46 49 52 40 49 57 54 62 49 49 45 49 46 49 50 49 47 47 46 47
26 33 25 21 23 21 21 29 33 29 18 22 20 11 3 12 16 14 22 25 32 39 46 48 41 41 45 45 52 53 60 53 57 47 44 48 50 50 48 44 43 43 44
30 27 24 24 33 39 32 35 36 33 33 28 17 5 11 19 22 14 17 27 28 36 44 40 39 39 31 35 40 48 49 53 53 42 44 47 50 52 50 47 44 40 39
31 29 22 37 38 37 38 32 32 27 32 18 12 15 14 6 10 15 21 28 31 40 53 43 32 34 33 33 33 45 48 52 55 53 49 50 53 53 50 49 48 46 42
34 32 33 37 38 35 41 34 32 21 16 2 11 14 4 11 5 25 22 27 31 42 40 38 22 32 30 34 30 40 52 48 58 51 51 48 50 49 46 46 48 48 46
38 32 40 36 31 29 32 32 31 22 14 14 15 22 10 5 27 6 20 11 28 34 24 29 32 38 36 29 35 44 47 54 58 51 53 51 50 51 50 49 51 52 51
40 41 29 22 21 24 21 19 22 22 22 13 13 12 6 12 11 18 16 28 20 23 25 34 32 35 33 40 35 47 49 60 52 50 55 54 55 51 52 55 52 52 52
37 26 24 22 14 14 6 6 7 16 11 5 6 6 14 16 14 15 27 37 29 25 16 16 28 21 30 41 48 49 50 59 57 55 58 58 61 61 55 56 58 54 50
34 25 23 14 7 13 13 7 11 9 3 3 7 11 14 14 18 17 24 29 30 23 29 16 30 30 31 42 46 48 57 58 56 57 60 61 65 67 65 62 63 59 55
33 32 25 31 33 27 20 9 5 3 4 5 7 7 6 8 16 16 18 24 29 24 26 20 29 27 38 44 57 53 58 65 58 56 55 64 66 71 74 64 70 62 55
39 35 36 35 26 18 10 8 6 8 9 13 13 9 15 11 8 16 17 21 30 27 29 26 37 36 43 53 61 50 64 55 54 49 56 55 66 71 76 63 69 63 56
39 37 34 26 20 15 13 9 10 12 13 14 13 9 12 3 15 23 21 22 23 31 38 33 48 42 52 54 47 50 66 65 54 53 54 63 64 73 59 60 67 64 56
43 39 32 22 16 16 12 10 11 13 14 9 10 12 5 11 10 11 13 17 24 27 33 41 49 43 56 49 45 44 53 70 50 56 58 57 65 53 50 58 61 57 55
41 36 28 22 19 16 13 11 14 23 24 21 15 21 16 14 12 7 13 20 23 27 37 47 46 48 48 53 51 53 64 65 53 45 50 55 59 50 52 57 59 59 59
40 35 30 25 18 16 16 19 17 20 9 12 13 14 12 15 17 18 20 22 26 31 37 45 51 49 52 52 51 63 66 61 52 36 42 50 47 54 57 50 53 57 59
38 32 29 24 20 20 20 18 19 14 11 11 9 15 16 16 22 23 15 24 28 34 36 43 50 49 50 48 62 67 64 60 49 43 44 39 51 48 39 50 46 53 48
37 33 31 27 24 21 23 24 12 14 11 11 6 10 17 27 31 29 29 31 35 40 41 47 51 51 50 59 65 63 72 59 57 52 41 52 45 50 52 49 49 49 64
35 32 27 20 15 15 18 14 15 15 8 7 10 20 24 25 30 36 39 39 41 45 49 51 47 51 56 68 62 66 61 61 63 54 57 66 60 41 42 43 48 61 63
36 28 23 18 21 20 17 13 14 11 6 6 9 14 20 23 29 37 36 34 28 40 45 47 49 57 58 52 59 61 51 67 66 65 67 68 45 52 56 48 48 51 54
34 26 24 23 23 21 17 14 11 14 7 9 13 12 21 38 40 41 40 36 32 26 33 44 49 40 51 51 54 59 58 58 63 69 62 67 53 75 69 46 25 36 55
33 27 26 25 23 21 16 12 9 15 18 21 22 29 36 38 42 47 42 39 35 30 36 29 28 41 44 46 47 48 52 57 65 60 59 57 75 76 79 14 24 45 50
36 29 24 27 23 21 18 16 13 18 25 21 24 28 37 43 45 42 40 41 40 37 32 33 32 37 36 41 41 42 53 60 70 66 43 66 72 79 72 32 42 50 58
32 30 26 28 25 21 19 21 26 16 16 13 11 27 38 42 37 47 48 50 48 47 44 47 43 36 36 36 39 54 63 61 56 62 54 66 67 65 57 45 69 60 68
Wind_Direction_500mb
207 172 207 253 84 226 171 228 207 231 282 277 231 238 267 306 313 351 323 304 315 323 322 330 336 332 334 327 326 325 322 321 318 318 315 313 311 309 307 305 300 296 294
208 182 195 193 188 197 228 246 242 237 257 256 218 256 258 243 275 287 299 307 306 314 324 334 336 341 339 340 341 343 337 330 328 325 323 319 316 313 309 304 300 299 296
198 204 200 210 182 206 209 219 222 239 227 250 250 263 264 296 310 346 86 291 297 312 334 342 339 339 348 345 347 348 357 350 348 348 346 341 338 332 329 322 311 301 292
207 197 190 204 189 211 230 255 244 247 225 230 244 254 280 352 25 349 288 318 330 327 341 342 331 339 341 342 351 351 358 353 356 349 342 341 338 337 337 337 331 329 321
210 187 174 208 202 201 222 225 222 232 219 241 236 237 40 19 355 278 291 351 333 324 336 337 335 334 343 351 347 346 351 356 353 345 340 344 346 344 340 337 329 329 324
201 188 169 211 200 201 226 232 233 239 244 242 256 245 291 329 308 298 296 336 321 321 331 330 337 335 351 341 339 341 344 355 354 354 358 355 354 351 345 339 334 325 321
198 190 185 215 217 219 227 240 245 234 239 243 238 286 299 0 321 327 328 333 314 333 335 338 342 344 348 353 335 330 338 340 353 354 352 352 353 354 349 348 344 341 336
201 189 200 219 227 236 233 238 227 217 216 182 349 340 299 303 239 346 352 346 337 339 343 353 344 333 331 349 340 328 323 337 345 348 353 349 349 350 354 350 350 347 347
202 202 210 222 231 238 235 230 219 222 218 268 303 309 304 303 312 187 330 337 333 347 347 352 335 340 328 341 324 330 331 337 340 343 348 348 346 346 344 345 346 344 350
188 200 207 223 220 230 231 250 264 251 262 297 346 344 341 321 335 320 308 333 5 330 333 337 341 353 345 358 332 325 333 341 341 344 346 345 345 342 340 340 342 340 343
189 193 197 202 210 246 256 148 210 227 185 246 218 299 332 351 346 316 325 338 348 346 349 323 353 353 332 338 343 343 342 339 348 347 345 344 347 345 340 339 339 339 339
165 192 198 157 113 135 165 162 139 154 275 333 319 327 357 10 320 332 334 340 333 28 356 331 348 333 334 338 345 336 332 338 337 336 341 341 343 341 340 335 337 335 337
189 168 146 142 128 131 141 148 141 104 18 349 333 332 37 343 15 344 321 343 351 9 9 10 355 350 341 336 336 334 337 335 335 332 334 336 336 337 339 333 338 338 335
161 156 158 149 150 141 126 128 111 69 13 352 4 21 69 0 339 339 4 356 357 359 343 336 355 346 340 336 338 334 331 330 335 340 333 333 333 335 337 333 338 339 334
159 162 155 159 151 131 117 90 48 25 17 26 27 60 96 349 16 17 13 2 343 327 328 332 337 328 333 336 345 329 325 330 341 338 335 331 332 334 333 335 340 340 332
154 159 161 152 135 122 106 56 34 28 50 59 0 35 66 78 35 29 359 329 360 338 325 324 318 329 327 339 335 326 322 330 340 326 334 334 330 327 325 335 336 334 330
156 152 144 144 132 107 83 70 50 57 49 30 42 26 36 16 357 338 342 332 335 326 326 320 328 323 339 329 329 314 322 324 320 338 336 331 321 320 322 329 332 328 322
142 140 131 122 113 96 79 78 96 83 88 45 19 353 355 4 354 331 338 332 325 318 316 325 318 332 328 334 314 316 322 321 333 340 326 327 319 322 321 323 325 322 316
133 130 124 117 104 95 92 94 89 97 66 46 21 23 9 350 330 336 338 318 316 318 325 320 322 322 321 323 312 316 323 333 346 331 323 316 327 337 338 328 321 323 325
141 134 123 114 112 129 123 108 99 79 66 29 16 343 342 338 334 336 337 336 334 333 333 329 325 327 331 319 327 333 332 345 337 347 356 339 337 330 335 331 332 332 332
138 132 132 144 133 125 131 131 131 94 99 93 9 346 338 327 333 339 340 341 341 339 333 332 325 323 331 331 340 340 345 338 341 351 341 333 337 343 347 343 331 331 325
131 130 133 123 116 111 112 109 106 100 79 43 7 349 341 324 324 330 333 333 337 328 324 319 324 331 339 352 350 352 349 350 349 353 346 345 356 342 328 322 323 322 316
132 130 114 108 103 101 101 108 126 85 19 346 335 330 310 322 330 330 334 333 330 335 319 318 323 348 348 353 344 347 350 346 345 346 341 339 343 337 338 341 346 316 322
120 117 114 112 108 104 102 100 86 61 24 2 15 359 349 344 342 342 343 343 345 341 336 346 357 353 347 347 343 341 342 341 341 346 345 336 340 337 341 6 343 317 320
119 115 112 108 105 104 100 92 70 52 28 1 3 357 350 347 347 354 2 6 9 15 19 20 8 1 349 353 348 340 346 343 338 345 346 336 341 337 338 359 338 350 351
118 124 107 95 96 98 107 107 104 92 56 354 4 7 343 357 16 19 20 21 15 14 12 12 8 4 1 357 345 348 345 340 342 345 343 341 342 342 335 341 346 356 350
Wind_Speed_850mb
24 28 19 10 2 8 4 13 11 11 9 7 9 8 13 8 7 17 18 27 33 39 44 49 46 51 52 50 48 50 53 53 51 53 53 55 54 52 51 50 49 46 47
29 26 24 30 17 16 16 8 18 17 8 12 18 22 16 9 9 15 17 19 28 36 38 45 57 55 55 45 51 56 49 47 48 48 49 52 53 54 51 50 49 48 47
29 31 27 23 20 20 21 19 18 20 19 30 30 19 21 9 17 18 0 10 19 32 41 53 52 61 48 51 56 55 51 46 46 47 45 43 46 47 48 45 46 47 46
28 32 22 18 21 19 22 23 19 29 32 21 30 23 8 15 21 14 16 30 30 32 48 46 49 52 40 49 57 54 62 49 49 45 49 46 49 50 49 47 47 46 47
26 33 25 21 23 21 21 29 33 29 18 22 20 11 3 12 16 14 22 25 32 39 46 48 41 41 45 45 52 53 60 53 57 47 44 48 50 50 48 44 43 43 44
30 27 24 24 33 39 32 35 36 33 33 28 17 5 11 19 22 14 17 27 28 36 44 40 39 39 31 35 40 48 49 53 53 42 44 47 50 52 50 47 44 40 39
31 29 22 37 38 37 38 32 32 27 32 18 12 15 14 6 10 15 21 28 31 40 53 43 32 34 33 33 33 45 48 52 55 53 49 50 53 53 50 49 48 46 42
34 32 33 37 38 35 41 34 32 21 16 2 11 14 4 11 5 25 22 27 31 42 40 38 22 32 30 34 30 40 52 48 58 51 51 48 50 49 46 46 48 48 46
38 32 40 36 31 29 32 32 31 22 14 14 15 22 10 5 27 6 20 11 28 34 24 29 32 38 36 29 35 44 47 54 58 51 53 51 50 51 50 49 51 52 51
40 41 29 22 21 24 21 19 22 22 22 13 13 12 6 12 11 18 16 28 20 23 25 34 32 35 33 40 35 47 49 60 52 50 55 54 55 51 52 55 52 52 52
37 26 24 22 14 14 6 6 7 16 11 5 6 6 14 16 14 15 27 37 29 25 16 16 28 21 30 41 48 49 50 59 57 55 58 58 61 61 55 56 58 54 50
34 25 23 14 7 13 13 7 11 9 3 3 7 11 14 14 18 17 24 29 30 23 29 16 30 30 31 42 46 48 57 58 56 57 60 61 65 67 65 62 63 59 55
33 32 25 31 33 27 20 9 5 3 4 5 7 7 6 8 16 16 18 24 29 24 26 20 29 27 38 44 57 53 58 65 58 56 55 64 66 71 74 64 70 62 55
39 35 36 35 26 18 10 8 6 8 9 13 13 9 15 11 8 16 17 21 30 27 29 26 37 36 43 53 61 50 64 55 54 49 56 55 66 71 76 63 69 63 56
39 37 34 26 20 15 13 9 10 12 13 14 13 9 12 3 15 23 21 22 23 31 38 33 48 42 52 54 47 50 66 65 54 53 54 63 64 73 59 60 67 64 56
43 39 32 22 16 16 12 10 11 13 14 9 10 12 5 11 10 11 13 17 24 27 33 41 49 43 56 49 45 44 53 70 50 56 58 57 65 53 50 58 61 57 55
41 36 28 22 19 16 13 11 14 23 24 21 15 21 16 14 12 7 13 20 23 27 37 47 46 48 48 53 51 53 64 65 53 45 50 55 59 50 52 57 59 59 59
40 35 30 25 18 16 16 19 17 20 9 12 13 14 12 15 17 18 20 22 26 31 37 45 51 49 52 52 51 63 66 61 52 36 42 50 47 54 57 50 53 57 59
38 32 29 24 20 20 20 18 19 14 11 11 9 15 16 16 22 23 15 24 28 34 36 43 50 49 50 48 62 67 64 60 49 43 44 39 51 48 39 50 46 53 48
37 33 31 27 24 21 23 24 12 14 11 11 6 10 17 27 31 29 29 31 35 40 41 47 51 51 50 59 65 63 72 59 57 52 41 52 45 50 52 49 49 49 64
35 32 27 20 15 15 18 14 15 15 8 7 10 20 24 25 30 36 39 39 41 45 49 51 47 51 56 68 62 66 61 61 63 54 57 66 60 41 42 43 48 61 63
36 28 23 18 21 20 17 13 14 11 6 6 9 14 20 23 29 37 36 34 28 40 45 47 49 57 58 52 59 61 51 67 66 65 67 68 45 52 56 48 48 51 54
34 26 24 23 23 21 17 14 11 14 7 9 13 12 21 38 40 41 40 36 32 26 33 44 49 40 51 51 54 59 58 58 63 69 62 67 53 75 69 46 25 36 55
33 27 26 25 23 21 16 12 9 15 18 21 22 29 36 38 42 47 42 39 35 30 36 29 28 41 44 46 47 48 52 57 65 60 59 57 75 76 79 14 24 45 50
36 29 24 27 23 21 18 16 13 18 25 21 24 28 37 43 45 42 40 41 40 37 32 33 32 37 36 41 41 42 53 60 70 66 43 66 72 79 72 32 42 50 58
32 30 26 28 25 21 19 21 26 16 16 13 11 27 38 42 37 47 48 50 48 47 44 47 43 36 36 36 39 54 63 61 56 62 54 66 67 65 57 45 69 60 68
Wind_Direction_850mb
207 172 207 253 84 226 171 228 207 231 282 277 231 238 267 306 313 351 323 304 315 323 322 330 336 332 334 327 326 325 322 321 318 318 315 313 311 309 307 305 300 296 294
208 182 195 193 188 197 228 246 242 237 257 256 218 256 258 243 275 287 299 307 306 314 324 334 336 341 339 340 341 343 337 330 328 325 323 319 316 313 309 304 300 299 296
198 204 200 210 182 206 209 219 222 239 227 250 250 263 264 296 310 346 86 291 297 312 334 342 339 339 348 345 347 348 357 350 348 348 346 341 338 332 329 322 311 301 292
207 197 190 204 189 211 230 255 244 247 225 230 244 254 280 352 25 349 288 318 330 327 341 342 331 339 341 342 351 351 358 353 356 349 342 341 338 337 337 337 331 329 321
210 187 174 208 202 201 222 225 222 232 219 241 236 237 40 19 355 278 291 351 333 324 336 337 335 334 343 351 347 346 351 356 353 345 340 344 346 344 340 337 329 329 324
201 188 169 211 200 201 226 232 233 239 244 242 256 245 291 329 308 298 296 336 321 321 331 330 337 335 351 341 339 341 344 355 354 354 358 355 354 351 345 339 334 325 321
198 190 185 215 217 219 227 240 245 234 239 243 238 286 299 0 321 327 328 333 314 333 335 338 342 344 348 353 335 330 338 340 353 354 352 352 353 354 349 348 344 341 336
201 189 200 219 227 236 233 238 227 217 216 182 349 340 299 303 239 346 352 346 337 339 343 353 344 333 331 349 340 328 323 337 345 348 353 349 349 350 354 350 350 347 347
202 202 210 222 231 238 235 230 219 222 218 268 303 309 304 303 312 187 330 337 333 347 347 352 335 340 328 341 324 330 331 337 340 343 348 348 346 346 344 345 346 344 350
188 200 207 223 220 230 231 250 264 251 262 297 346 344 341 321 335 320 308 333 5 330 333 337 341 353 345 358 332 325 333 341 341 344 346 345 345 342 340 340 342 340 343
189 193 197 202 210 246 256 148 210 227 185 246 218 299 332 351 346 316 325 338 348 346 349 323 353 353 332 338 343 343 342 339 348 347 345 344 347 345 340 339 339 339 339
165 192 198 157 113 135 165 162 139 154 275 333 319 327 357 10 320 332 334 340 333 28 356 331 348 333 334 338 345 336 332 338 337 336 341 341 343 341 340 335 337 335 337
189 168 146 142 128 131 141 148 141 104 18 349 333 332 37 343 15 344 321 343 351 9 9 10 355 350 341 336 336 334 337 335 335 332 334 336 336 337 339 333 338 338 335
161 156 158 149 150 141 126 128 111 69 13 352 4 21 69 0 339 339 4 356 357 359 343 336 355 346 340 336 338 334 331 330 335 340 333 333 333 335 337 333 338 339 334
159 162 155 159 151 131 117 90 48 25 17 26 27 60 96 349 16 17 13 2 343 327 328 332 337 328 333 336 345 329 325 330 341 338 335 331 332 334 333 335 340 340 332
154 159 161 152 135 122 106 56 34 28 50 59 0 35 66 78 35 29 359 329 360 338 325 324 318 329 327 339 335 326 322 330 340 326 334 334 330 327 325 335 336 334 330
156 152 144 144 132 107 83 70 50 57 49 30 42 26 36 16 357 338 342 332 335 326 326 320 328 323 339 329 329 314 322 324 320 338 336 331 321 320 322 329 332 328 322
142 140 131 122 113 96 79 78 96 83 88 45 19 353 355 4 354 331 338 332 325 318 316 325 318 332 328 334 314 316 322 321 333 340 326 327 319 322 321 323 325 322 316
133 130 124 117 104 95 92 94 89 97 66 46 21 23 9 350 330 336 338 318 316 318 325 320 322 322 321 323 312 316 323 333 346 331 323 316 327 337 338 328 321 323 325
141 134 123 114 112 129 123 108 99 79 66 29 16 343 342 338 334 336 337 336 334 333 333 329 325 327 331 319 327 333 332 345 337 347 356 339 337 330 335 331 332 332 332
138 132 132 144 133 125 131 131 131 94 99 93 9 346 338 327 333 339 340 341 341 339 333 332 325 323 331 331 340 340 345 338 341 351 341 333 337 343 347 343 331 331 325
131 130 133 123 116 111 112 109 106 100 79 43 7 349 341 324 324 330 333 333 337 328 324 319 324 331 339 352 350 352 349 350 349 353 346 345 356 342 328 322 323 322 316
132 130 114 108 103 101 101 108 126 85 19 346 335 330 310 322 330 330 334 333 330 335 319 318 323 348 348 353 344 347 350 346 345 346 341 339 343 337 338 341 346 316 322
120 117 114 112 108 104 102 100 86 61 24 2 15 359 349 344 342 342 343 343 345 341 336 346 357 353 347 347 343 341 342 341 341 346 345 336 340 337 341 6 343 317 320
119 115 112 108 105 104 100 92 70 52 28 1 3 357 350 347 347 354 2 6 9 15 19 20 8 1 349 353 348 340 346 343 338 345 346 336 341 337 338 359 338 350 351
118 124 107 95 96 98 107 107 104 92 56 354 4 7 343 357 16 19 20 21 15 14 12 12 8 4 1 357 345 348 345 340 342 345 343 341 342 342 335 341 346 356 350